713  
NZUS99 KTBW 271817  
RWRTPA  
FLORIDA REGIONAL WEATHER ROUNDUP  
NATIONAL WEATHER SERVICE TAMPA BAY RUSKIN FL  
200 PM EDT THU APR 27 2017  
 
NOTE: "FAIR" INDICATES FEW OR NO CLOUDS BELOW 12,000 FEET WITH NO  
SIGNIFICANT WEATHER AND/OR S TO VISIBILITY
.  
 
 
STATION/POSITION
 
 
 
FLZ042-048>051-055-056-060-061-271900-  
EXTRA STATIONS  
 
CITY SKY/WX TMP DP RH WIND PRES REMARKS
 
EVERGLADES CTY NOT AVBL  
CRYSTAL RIVER FAIR 88 64 45 S6 29.91F  
EGLIN AFB PTSUNNY 81 73 75 S18G24 29.84S  
CANAVERAL SUNNY 87 73 63 SE17 29.94F HX 94  
 

 
FLZ001>010-012>015-271900-  
PANHANDLE FLORIDA  
 
CITY SKY/WX TMP DP RH WIND PRES REMARKS
 
PENSACOLA CLOUDY 83 73 72 S16G29 29.82F  
PENSACOLA NAS PTSUNNY 80 73 79 S14G23 29.82F  
MILTON NAS CLOUDY 78 72 81 W6 29.82  
CRESTVIEW PTSUNNY 85 71 63 SW14G23 29.84F HX 90  
VALPARAISO CLOUDY 78 73 84 SW17 29.84F FOG  
MARY ESTHER CLOUDY 80 70 73 S14 29.84  
PANAMA CITY CLOUDY 80 72 76 S18G25 29.86F  
TYNDALL AFB PTSUNNY 80 73 81 S17 29.87F  
APALACHICOLA PTSUNNY 81 75 82 S20 29.89F  
 
STATION/POSITION
 
 
29.2N 88.2W  
28.8N 86.0W  
28.5N 84.5W  
 

 
FLZ011-016>039-271900-  
NORTH FLORIDA  
 
CITY SKY/WX TMP DP RH WIND PRES REMARKS
 
MARIANNA CLOUDY 84 71 65 S17G25 29.83F  
TALLAHASSEE PTSUNNY 87 66 49 S17G32 29.87F  
PERRY PTSUNNY 85 69 59 SW20G25 29.93F  
CROSS CITY SUNNY 88 64 45 S16 29.92S  
GAINESVILLE SUNNY 91 59 33 S13 29.90F HX 90  
MAYPORT NAS MOSUNNY 84 60 44 SE21G29 29.91F  
JACKSONVILLE MOSUNNY 90 61 37 SE13G28 29.88F HX 90  
JAX NAS MOSUNNY 89 60 37 S14 29.91F  
JAX CRAIG SUNNY 89 58 34 SW16 29.90F  
ST AUGUSTINE SUNNY 86 65 49 SE18 29.92F SMOKE  
 
STATION/POSITION
 
 
KEATON BEACH  
31.4N 80.9W  
ST AUGUSTINE  
 

 
FLZ040-043>046-052-053-057-058-063-271900-  
CENTRAL FLORIDA  
 
CITY SKY/WX TMP DP RH WIND PRES REMARKS
 
OCALA SUNNY 90 61 37 S9 29.92F  
LEESBURG SUNNY 91 62 37 S10 29.93F HX 91  
SANFORD SUNNY 91 59 33 S8G20 29.93F HX 90  
ORLANDO EXEC SUNNY 90 61 37 SW9G18 29.94F HX 90  
ORLANDO INTL MOSUNNY 90 60 36 S7G18 29.94F  
KISSIMMEE MOSUNNY 90 64 42 S12 29.95F HX 91  
WINTER HAVEN MOSUNNY 91 60 35 S14 29.95F HX 90  
LAKELAND MOSUNNY 90 64 43 SW7 29.94F HX 91  
BARTOW MOSUNNY 88 61 40 S14 29.94F  
 

 
FLZ041-047-054-059-064-271900-  
EAST CENTRAL FLORIDA  
 
CITY SKY/WX TMP DP RH WIND PRES REMARKS
 
DAYTONA BEACH MOSUNNY 90 60 36 S10 29.92F  
JFK SPACE CTR SUNNY 89 69 52 S14 29.94S HX 93  
TITUSVILLE MOSUNNY 90 72 55 SE13 29.95F HX 96  
PATRICK AFB SUNNY 84 75 73 SE17 29.95F HX 92  
MELBOURNE SUNNY 86 73 65 SE21G29 29.95F HX 93  
VERO BEACH SUNNY 87 74 64 SE22 29.96F HX 95  
FT PIERCE MOSUNNY 88 74 63 SE22G29 29.96F HX 96  
STUART MOSUNNY 86 75 70 SE18G25 29.98F HX 95  
 
STATION/POSITION
 
 
28.9N 78.5W  
 

 
FLZ042-048>051-055-056-060-061-271900-  
WEST CENTRAL FLORIDA  
 
CITY SKY/WX TMP DP RH WIND PRES REMARKS
 
BROOKSVILLE SUNNY 92 63 38 S12 29.93F HX 93  
TAMPA MOSUNNY 87 69 54 SW10 29.94F HX 91  
MACDILL AFB MOSUNNY 89 71 55 SW7 29.93F HX 94  
ST PETERSBURG MOSUNNY 89 62 40 S16G24 29.93F  
ST PET-WHITTED SUNNY 83 69 62 SW10 29.92F  
SARASOTA SUNNY 85 71 63 SW16 29.93F HX 90  
 
STATION/POSITION
 
 
CEDAR KEY  
28.5N 84.5W  
VENICE  
 

 
FLZ062-065-066-069-070-075>078-271900-  
SOUTHWEST FLORIDA AND KEYS  
 
CITY SKY/WX TMP DP RH WIND PRES REMARKS
 
PUNTA GORDA MOSUNNY 90 71 53 W16 29.95F HX 96  
FT MYERS SUNNY 89 72 56 SW14 29.93F HX 96  
SOUTHWEST INTL PTSUNNY 88 71 57 SW13 29.93F HX 94  
NAPLES MOSUNNY 88 72 58 S16 29.94F HX 94  
MARATHON SUNNY 87 76 69 VRB5 29.96F HX 97  
KEY WEST NAS MOSUNNY 82 76 81 SE12 29.96S  
KEY WEST INTL SUNNY 84 76 76 SE9 29.96F HX 93  
 
STATION/POSITION
 
 
VENICE  
26.0N 85.6W  
SAND KEY  
LONG KEY  
MOLASSES REEF  
 

 
FLZ067-068-071>074-271900-  
SOUTHEAST FLORIDA  
 
CITY SKY/WX TMP DP RH WIND PRES REMARKS
 
W PALM BEACH PTSUNNY 87 73 62 SE18 29.97F HX 94  
POMPANO BEACH MOSUNNY 87 75 67 SE15 29.96F HX 96  
FT LAUDER-EXEC MOSUNNY 90 71 53 SE12 29.96F HX 96  
FT LAUDERDALE MOSUNNY 85 74 69 SE16 29.96F HX 92  
PEMBROKE PINES MOSUNNY 89 73 59 SE14 29.97F HX 97  
OPA LOCKA PTSUNNY 85 73 67 SE14 29.96F HX 91  
MIAMI MOSUNNY 89 73 59 SE14 29.96F HX 97  
WEST KENDALL MOSUNNY 89 72 56 SE13G21 29.95F HX 96  
HOMESTEAD PTSUNNY 87 76 67 SE14 29.96F HX 97  
 
STATION/POSITION
 
 
LAKE WORTH  
FOWEY ROCKS  
SETTLEMENT POINT  
 

 
 
 
CLICK HERE TO GO TO PREVIOUS BULLETINS.

The Nexlab FL Page Main Text Page